Flag for Japan Weather past 2 weeks in Kagoshima, Japan

Now
66 °F

Mild.


Feels Like: 66 °F
Forecast: 61 / 72 °F
Wind: 2 mph from South

Location: Kagoshima

Current Time: Apr 2, 2015 at 8:07:10 AM

Latest Report: Apr 2, 2015 at 7:00 AM


Visibility: N/A

Pressure: 29.96 "Hg

Humidity: 94%

Dew point: 64 °F

Location of KagoshimaLocation

Historic Weather in Kagoshima — Graph

°F

Kagoshima temperature yesterday

Maximum temperature yesterday: 74 °F (at 4:00 PM)
Minimum temperature yesterday: 64 °F (at 7:00 AM)
Average temperature yesterday: 68 °F

Past Weeks' High & Low Weather Summary

 TemperatureHumidityPressure
High76 °F (Mar 29, 3:00 PM)98% (Apr 2, 5:00 AM)30.56 "Hg (Apr 2, 5:00 AM)
Low43 °F (Mar 26, 7:00 AM)15% (Mar 25, 1:00 PM)29.78 "Hg (Mar 19, 3:00 PM)
Average60 °F66%30.12 "Hg
* Reported Mar 18 7:00 AM — Apr 2 6:00 AM, Kagoshima, Weather by CustomWeather, © 2015

Note: Actual official high and low records may vary slightly from our data, if they occured in-between our weather recording intervals... More about our weather records

Advertising

Kagoshima weather history for previous 24 hours

 ConditionsComfort  
Time TempWeatherWind HumidityBarometerVisibility
6:00 AM
Thu, Apr 2
65 °FFog.5 mph95%29.94 "Hg4 mi
5:00 AM63 °FMild.5 mph98%29.93 "HgN/A
4:00 AM65 °FMild.3 mph96%29.91 "HgN/A
3:00 AM65 °FPassing clouds.2 mph94%29.92 "Hg6 mi
2:00 AM66 °FMild.1 mph92%29.94 "HgN/A
1:00 AM66 °FMild.3 mph92%29.95 "HgN/A
12:00 AM66 °FMild.3 mph94%29.96 "HgN/A
11:00 PM
Wed, Apr 1
67 °FMild.6 mph92%29.96 "HgN/A
10:00 PM69 °FMild.1 mph92%29.95 "HgN/A
9:00 PM69 °FPassing clouds.3 mph91%29.93 "Hg9 mi
8:00 PM69 °FMild.3 mph90%29.91 "HgN/A
7:00 PM70 °FMild.6 mph91%29.88 "HgN/A
6:00 PM71 °FOvercast.7 mph88%29.88 "Hg6 mi
5:00 PM72 °FMild.5 mph87%29.87 "HgN/A
4:00 PM74 °FMild.7 mph80%29.87 "HgN/A
3:00 PM74 °FOvercast.3 mph81%29.87 "Hg6 mi
2:00 PM72 °FMild.5 mph85%29.90 "HgN/A
1:00 PM72 °FMild.7 mph80%29.92 "HgN/A
12:00 PM72 °FOvercast.6 mph79%29.94 "Hg6 mi
11:00 AM70 °FMild.2 mph85%29.96 "HgN/A
10:00 AM68 °FMild.1 mph89%29.97 "HgN/A
9:00 AM66 °FSprinkles. Overcast.3 mph94%29.97 "Hg5 mi
8:00 AM65 °FMild.3 mph95%29.96 "HgN/A
Weather by CustomWeather, © 2015

See weather overviewHow to use our weather pages